Location: Ferintosh
(52.7647°N, 112.9692°W)
Time: 13:36:44
(UTC+00:00)

S-56A Canister/Altair - Pass Details

Date: 30 May 2024
Orbit: 637 x 2489 km, 38.9° (Epoch: 20 June)

Event Time Altitude Azimuth Distance (km) Brightness Sun altitude
Rises 14:36:05 0° 261° (W) 5,999 11.5 27.2°
Reaches altitude 10° 14:40:39 10° 255° (WSW) 4,817 11.1 27.9°
Maximum altitude 14:51:59 37° 195° (SSW) 2,575 10.4 29.6°
Drops below altitude 10° 15:00:14 10° 132° (SE) 3,497 11.8 30.9°
Sets 15:03:00 0° 124° (SE) 4,230 12.2 31.3°
